Regional Weather Roundup
Issued by NWS

Home | Current Version | Previous Version | Text Only | Print | Product List | Glossary Off
Versions: 1 2 3 4 5 6 7 8 9 10 11 12 13 14 15 16 17 18 19 20 21 22 23 24 25 26 27 28 29 30 31 32 33 34 35 36 37 38 39 40 41 42 43 44 45 46 47 48 49 50

000
ASUS43 KMKX 281721
RWRWI

WISCONSIN REGIONAL WEATHER ROUNDUP
NATIONAL WEATHER SERVICE MILWAUKEE/SULLIVAN WI
1200 PM CDT SAT MAY 28 2016

NOTE: "FAIR" INDICATES FEW OR NO CLOUDS BELOW 12,000 FEET WITH NO
SIGNIFICANT WEATHER AND/OR OBSTRUCTIONS TO VISIBILITY.

WIZ001-002-006>008-014>016-023>028-281800-
NORTHWEST WISCONSIN

CITY           SKY/WX    TMP DP  RH WIND       PRES   REMARKS
SUPERIOR ARPT  CLOUDY    52  50  93 CALM      29.81S
ASHLAND        CLOUDY    58  53  84 NE5       29.80R
HAYWARD        CLOUDY    64  60  87 VRB3      29.79R
SIREN          CLOUDY    62  56  79 CALM      29.79R
CUMBERLAND     CLOUDY    61  59  94 CALM      29.78S
RICE LAKE      CLOUDY    66  61  83 CALM      29.79R
CHETEK         CLOUDY    68  63  84 CALM      29.77S
LADYSMITH      CLOUDY    70  65  84 CALM      29.78S
EAU CLAIRE     CLOUDY    72  63  73 W3        29.75S
MENOMONIE      CLOUDY    69  69  99 CALM      29.77S
NEW RICHMOND   CLOUDY    66  62  86 CALM      29.78R
OSCEOLA        CLOUDY    63  63 100 CALM      29.80F
$$

WIZ003>005-009-010-017-018-281800-
NORTH CENTRAL WISCONSIN

CITY           SKY/WX    TMP DP  RH WIND       PRES   REMARKS
MANITOWISH WTR NOT AVBL
ARBOR VITAE    CLOUDY    69  67  93 SE5       29.78F
WOODRUFF       CLOUDY    69  67  93 SE5       29.78F
RHINELANDER    LGT RAIN  69  65  86 SE5       29.79S FOG
EAGLE RIVER    LGT RAIN  70  66  89 CALM      29.79S
LAND O LAKES   CLOUDY    69  65  87 E3        29.80F
PHILLIPS       CLOUDY    71  65  83 CALM      29.75F
TOMAHAWK       RAIN      67  65  93 CALM      29.78S
MEDFORD        CLOUDY    68  68 100 SE7       29.76S
MERRILL        CLOUDY    70  68  94 S10G18    29.77F
$$

WIZ029-030-035-036-043>047-281800-
CENTRAL WISCONSIN

CITY           SKY/WX    TMP DP  RH WIND       PRES   REMARKS
WAUSAU         CLOUDY    72  65  78 S21G26    29.75S
MOSINEE        CLOUDY    70  68  94 S17G24    29.78S
MARSHFIELD     CLOUDY    72  66  81 SW15      29.76R
STEVENS POINT  CLOUDY    69  64  86 S15G24    29.80R
WAUPACA        CLOUDY    75  68  78 S15       29.81R
WAUTOMA        CLOUDY    73  65  75 SW14G22   29.82R
WISC RAPIDS    CLOUDY    72  64  76 SW17G24   29.80R
CAMP DOUGLAS   PTSUNNY   75  64  69 SW16G23   29.79S
$$

WIZ011>013-019>022-031-037>040-048>050-281800-
NORTHEAST WISCONSIN

CITY           SKY/WX    TMP DP  RH WIND       PRES   REMARKS
ANTIGO         CLOUDY    67  66  96 S13G22    29.80S
SHAWANO        CLOUDY    74  67  80 S5        29.80S
OCONTO         CLOUDY   N/A N/A N/A S6        29.81S
STURGEON BAY   NOT AVBL
GREEN BAY      CLOUDY    75  65  70 S16G30    29.82R
MANITOWOC      CLOUDY    68  62  81 S16       29.86R
APPLETON       CLOUDY    73  63  68 SW17      29.81R
CLINTONVILLE   CLOUDY    72  64  78 S15G21    29.80S
OSHKOSH        CLOUDY    75  65  70 SW20G25   29.82R
$$

WIZ032>034-041-042-053>061-281800-
SOUTHWEST WISCONSIN

CITY           SKY/WX    TMP DP  RH WIND       PRES   REMARKS
LA CROSSE      CLOUDY    72  63  73 SW9       29.78R
SPARTA         PTSUNNY   73  66  79 S8        29.79R
VIROQUA        CLOUDY    70  64  79 S15       29.82R
BOSCOBEL       CLOUDY    74  64  71 S10       29.82R
PRAIRIE DU CHI PTSUNNY   73  62  67 S8        29.81S
PLATTEVILLE    MOSUNNY   76  67  73 SW20      29.85R
$$

WIZ056-057-062-063-064-067-068-281800-
SOUTH CENTRAL WISCONSIN

CITY           SKY/WX    TMP DP  RH WIND       PRES   REMARKS
REEDSBURG      CLOUDY    73  65  76 SW14G24   29.82R
BARABOO/DELLS  CLOUDY    74  62  66 SW21G26   29.82R
LONE ROCK      CLOUDY    77  64  64 SW17G24   29.83S
MINERAL POINT  MOSUNNY   75  64  69 S16G25    29.84F
MADISON        CLOUDY    76  65  68 SW10G21   29.83S
MIDDLETON      CLOUDY    77  65  65 SW16G28   29.84S
WATERTOWN      CLOUDY    75  67  75 S15G25    29.85S
MONROE         CLOUDY    75  64  69 S22G30    29.86S
JANESVILLE     PTSUNNY   79  66  65 S20G26    29.87R HX  81
$$

WIZ051-052-058>065-066-070>072-281800-
SOUTHEAST WISCONSIN

CITY           SKY/WX    TMP DP  RH WIND       PRES   REMARKS
MILWAUKEE      CLOUDY    77  66  68 S21G28    29.88S
WAUKESHA       PTSUNNY   73  64  73 S16       29.89R
MILWAUKEE/TIMM PTSUNNY   75  63  64 S16       29.88R
RACINE         CLOUDY    76  64  66 SE10G21   29.91R
BURLINGTON     CLOUDY    75  65  70 S12G20    29.89R
KENOSHA        CLOUDY    76  64  66 S17G28    29.90R
FOND DU LAC    CLOUDY    75  67  76 S18G28    29.83R
SHEBOYGAN      CLOUDY    74  66  76 S9        29.85S
WEST BEND      CLOUDY    73  64  73 S13G25    29.86S
JUNEAU         CLOUDY    75  66  75 S23       29.86S
$$

LSZ147-162-281800-
LAKE SUPERIOR

STATION/POSITION TIME  TEMP    WIND        PRES    WAVE
                       AIR SEA DIR/SP/G            HT/PER
                 (UTC) (F)     (DEG/KT/KT) (MB)    (FT/S)
W MID LAKE BUOY  1650   41 38   40/  8/  8 1009.1F   1/ 4
DEVILS ISLAND    1700   45     280/  6/  8 1009.4S
SAXON HARBOR     1600   51      50/  3/  5 1008.8R
$$

LMZ867-665-643>646-281800-
LAKE MICHIGAN

STATION/POSITION TIME  TEMP    WIND        PRES    WAVE
                       AIR SEA DIR/SP/G            HT/PER
                 (UTC) (F)     (DEG/KT/KT) (MB)    (FT/S)
CHAMBERS ISLAND  1600   68     140/  8/ 18 1010.2S
N MID LAKE BUOY  1650   54 46  190/ 16/ 17 1011.2R   2/ 5
NORTHPORT PIER   1600   62     150/ 12/ 17 1010.8S
SISTER BAY       1605   68     190/ 16/ 21   N/A
ALGOMA LAKESHORE 1617          210/  6/  8   N/A
KEWAUNEE LAKESHO 1600   53     180/ 11/ 12 1010.3R
SHEBOYGAN LAKESH 1700   58     170/ 24/ 26 1011.2S
PORT WASHINGTON  1640   62     180/  7/ 10 1012.2R
S MID LAKE BUOY  1650   57 50  160/ 14/ 16 1013.1R   2/ 3
KENOSHA   LAKESH 1700   60     170/ 13/ 17 1012.5R
$$

TC  - TEMPERATURE IN CELSIUS
VSB - VISIBILITY IN STATUTE MILES
WCI - WIND CHILL INDEX
HX  - HEAT INDEX





USA.gov is the U.S. government's official web portal to all federal, state and local government web resources and services.